Home   Weather   Hohhot   Past weeks

Flag for China Past Weather in Hohhot, Inner Mongolia, China — Yesterday and Last 2 Weeks

Now
72 °F

Passing clouds.


Feels Like: 72 °F
Forecast: 67 / 85 °F
Wind: 1 mph from North

Location: Hohhot Airport

Current Time: Jul 25, 2017 at 9:03:26 pm

Latest Report: Jul 25, 2017 at 8:00 pm


Visibility: N/A

Pressure: 29.80 "Hg (26.38 "Hg at 1053m altitude)

Humidity: 78%

Dew Point: 64 °F

Location of HohhotLocation

Past Weather in Hohhot — Graph

°F

Hohhot Temperature Yesterday

Maximum temperature yesterday: 79 °F (at 12:00 am)
Minimum temperature yesterday: 68 °F (at 9:00 am)
Average temperature yesterday: 72 °F

High & Low Weather Summary for the Past Weeks

 TemperatureHumidityPressure
High95 °F (Jul 12, 4:00 pm)94% (Jul 22, 10:00 am)29.98 "Hg (Jul 22, 10:00 am)
Low64 °F (Jul 11, 2:00 am)28% (Jul 19, 5:00 pm)29.62 "Hg (Jul 13, 6:00 pm)
Average79 °F53%29.81 "Hg
* Reported Jul 10 8:00 pm — Jul 25 8:00 pm, Hohhot. Weather by CustomWeather, © 2017

Note: Actual official high and low records may vary slightly from our data, if they occured in-between our weather recording intervals... More about our weather records

Advertising

Hohhot Weather History for the Previous 24 Hours

Scroll right to see more
 ConditionsComfort  
Time TempWeatherWind HumidityBarometerVisibility
8:00 pm
Tue, Jul 25
72 °FPassing clouds.1 mph78%29.80 "HgN/A
7:00 pm72 °FScattered clouds.3 mph83%29.80 "HgN/A
6:00 pm72 °FSprinkles. Scattered clouds.6 mph83%29.83 "HgN/A
5:00 pm73 °FSprinkles. Scattered clouds.8 mph74%29.83 "HgN/A
4:00 pm73 °FSprinkles. Scattered clouds.8 mph74%29.83 "HgN/A
3:00 pm75 °FScattered clouds.8 mph69%29.83 "HgN/A
2:00 pm77 °FPartly sunny.3 mph61%29.83 "HgN/A
1:00 pm77 °FPartly sunny.8 mph61%29.83 "HgN/A
12:00 pm77 °FPartly sunny.6 mph61%29.86 "HgN/A
11:00 am75 °FPartly sunny.3 mph61%29.86 "HgN/A
10:00 am75 °FPassing clouds.8 mph61%29.86 "HgN/A
9:00 am72 °FScattered clouds.10 mph65%29.89 "HgN/A
8:00 am70 °FScattered clouds.10 mph69%29.89 "HgN/A
7:00 am68 °FPassing clouds.3 mph73%29.89 "HgN/A
6:00 am64 °FPassing clouds.3 mph78%29.89 "HgN/A
5:00 am64 °FPassing clouds.3 mph78%29.89 "HgN/A
4:00 am64 °FPassing clouds.3 mph78%29.89 "HgN/A
3:00 am64 °FPassing clouds.6 mph78%29.89 "HgN/A
2:00 am66 °FPassing clouds.6 mph73%29.92 "HgN/A
1:00 am64 °FPassing clouds.3 mph78%29.92 "HgN/A
12:00 am66 °FPassing clouds.1 mph78%29.92 "HgN/A
11:00 pm
Mon, Jul 24
68 °FPassing clouds.3 mph73%29.92 "HgN/A
10:00 pm68 °FPassing clouds.3 mph73%29.92 "HgN/A
9:00 pm70 °FPassing clouds.1 mph69%29.92 "HgN/A
Weather by CustomWeather, © 2017

See weather overviewHow to use our weather pages